User: anonymous   Login
Location: Diebersbach
(48.5163°N, 8.0558°E)
Time: 21:48:36
(UTC+00:00)
Language:

COSMOS 1375 DEB - Orbit

View from above orbital plane
View from above orbital plane
View from above satellite
View from above satellite

Ground track
Ground track

The orbit data is extracted from the following two-line orbital elements,

1 27803U 82055BQ  22021.22377351  .00000362  00000-0  30927-3 0  9992
2 27803  65.8190 308.5668 0028786 191.8738 317.8235 13.98883133566671
Epoch (UTC): 21 January 2022 05:22:14
Eccentricity: 0.0028786
inclination: 65.8190°
perigee height: 877 km
apogee height: 918 km
right ascension of ascending node: 308.5668°
argument of perigee: 191.8738°
revolutions per day: 13.98883133
mean anomaly at epoch: 317.8235°
orbit number at epoch: 56667

The dashed part of the orbit path shows where the satellite is in the earth's shadow,  

DLR